DW8022 Weather Reports


time (UTC)temp
C
wind
direction
speed
KPH
gust
KPH
rain 1hr
cm
rain 24hr
cm
rain mn
cm
humidity
%
barometer
mb
20260509235311 23 256 3.2 14.5 0.00 0.00 0.00 69 1026.4
20260509235200 21 313 0.0 3.2 0.00 0.00 0.00 72 1026.3
20260509232236 20 258 0.0 4.8 0.00 0.00 0.00 73 1026.1
20260509230732 18 302 0.0 6.4 0.00 0.00 0.00 75 1025.9
20260509225159 17 56 1.6 4.8 0.00 0.00 0.00 79 1025.8
20260509223635 17 12 1.6 3.2 0.00 0.00 0.00 80 1025.9
20260509222135 16 225 1.6 6.4 0.00 0.00 0.00 84 1026.0
20260509220625 13 215 0.0 0.0 0.00 0.00 0.00 86 1026.0
20260509215102 13 215 0.0 1.6 0.00 0.00 0.00 88 1026.1
20260509213604 12 215 0.0 0.0 0.00 0.00 0.00 91 1025.8
20260509212743 11 215 0.0 3.2 0.00 0.00 0.00 92 1025.5
20260509205055 11 215 0.0 4.8 0.00 0.00 0.00 91 1025.0
20260509202047 11 192 0.0 3.2 0.00 0.00 0.00 91 1024.8
20260509200547 11 85 0.0 3.2 0.00 0.00 0.00 91 1024.5
20260509195047 11 286 0.0 6.4 0.00 0.00 0.00 91 1024.5
20260509193550 11 214 0.0 0.0 0.00 0.00 0.00 91 1024.3
20260509192729 10 146 0.0 4.8 0.00 0.00 0.00 90 1024.1
20260509192558 10 240 1.6 4.8 0.00 0.00 0.00 90 1024.2
20260509190352 10 309 0.0 3.2 0.00 0.00 0.00 89 1024.1
20260509181938 10 309 0.0 0.0 0.00 0.00 0.00 89 1024.0
20260509181131 10 309 0.0 1.6 0.00 0.00 0.00 89 1024.1
20260509174936 10 309 0.0 0.0 0.00 0.00 0.00 89 1023.9
20260509173408 10 309 0.0 1.6 0.00 0.00 0.00 89 1023.8
20260509172541 11 309 0.0 0.0 0.00 0.00 0.00 89 1023.5
20260509171053 11 309 0.0 1.6 0.00 0.00 0.00 89 1023.7
20260509164837 11 309 0.0 0.0 0.00 0.00 0.00 89 1023.7
20260509163332 11 309 0.0 3.2 0.00 0.00 0.00 89 1023.8
20260509161828 11 309 0.0 3.2 0.00 0.00 0.00 89 1023.8
20260509160320 11 13 0.0 3.2 0.00 0.00 0.00 88 1023.9
20260509154820 11 255 0.0 0.0 0.00 0.00 0.00 88 1024.0
20260509153304 11 255 0.0 0.0 0.00 0.00 0.00 87 1024.0
20260509151730 11 255 0.0 0.0 0.00 0.00 0.00 87 1024.1
20260509151630 11 255 0.0 0.0 0.00 0.00 0.00 87 1024.0
20260509144707 11 255 0.0 0.0 0.00 0.00 0.00 87 1024.1
20260509141701 11 255 0.0 0.0 0.00 0.00 0.00 86 1024.3
20260509140201 11 255 0.0 0.0 0.00 0.00 0.00 86 1024.3
20260509134647 11 255 0.0 3.2 0.00 0.00 0.00 86 1024.5
20260509133132 11 255 0.0 3.2 0.00 0.00 0.00 85 1024.2
20260509131614 12 255 0.0 0.0 0.00 0.00 0.00 85 1024.3
20260509130800 12 255 0.0 0.0 0.00 0.00 0.00 84 1024.3
20260509124550 12 255 0.0 0.0 0.00 0.00 0.00 83 1024.2
20260509123048 12 255 0.0 0.0 0.00 0.00 0.00 83 1024.4
20260509121536 12 255 0.0 0.0 0.00 0.00 0.00 82 1024.5
20260509120027 13 255 0.0 1.6 0.00 0.00 0.00 82 1024.3
20260509114526 13 255 0.0 0.0 0.00 0.00 0.00 82 1024.5
20260509114445 13 255 0.0 0.0 0.00 0.00 0.00 81 1024.6
20260509112924 13 255 0.0 0.0 0.00 0.00 0.00 80 1024.6
20260509110025 14 255 0.0 1.6 0.00 0.00 0.00 80 1024.4
20260509104520 14 255 0.0 1.6 0.00 0.00 0.00 79 1024.4
20260509103020 15 255 0.0 3.2 0.00 0.00 0.00 78 1024.4
20260509102220 15 255 0.0 0.0 0.00 0.00 0.00 77 1024.2
20260509100023 15 255 0.0 0.0 0.00 0.00 0.00 75 1023.9
20260509094509 15 255 0.0 0.0 0.00 0.00 0.00 75 1023.9
20260509093009 16 255 0.0 3.2 0.00 0.00 0.00 74 1023.9
20260509091451 16 255 0.0 3.2 0.00 0.00 0.00 74 1023.8
20260509090654 16 255 1.6 4.8 0.00 0.00 0.00 73 1023.5
20260509084445 17 255 0.0 3.2 0.00 0.00 0.00 70 1023.3
20260509082932 17 261 0.0 4.8 0.00 0.00 0.00 69 1023.2
20260509074358 19 119 0.0 3.2 0.00 0.00 0.00 62 1022.9
20260509072904 20 119 0.0 0.0 0.00 0.00 0.00 59 1022.6
20260509072056 21 119 0.0 0.0 0.00 0.00 0.00 57 1022.6
20260509065838 21 119 0.0 0.0 0.00 0.00 0.00 55 1022.2
20260509064338 22 119 1.6 8.0 0.00 0.00 0.00 53 1022.1
20260509063502 22 86 3.2 11.3 0.00 0.00 0.00 52 1021.9
20260509061307 22 59 3.2 6.4 0.00 0.00 0.00 51 1021.8
20260509055813 22 52 1.6 9.7 0.00 0.00 0.00 49 1021.7
20260509054255 23 74 4.8 11.3 0.00 0.00 0.00 47 1021.9
20260509052750 23 65 1.6 11.3 0.00 0.00 0.00 46 1021.8
20260509051251 23 65 3.2 11.3 0.00 0.00 0.00 47 1021.8
20260509045734 23 25 3.2 11.3 0.00 0.00 0.00 43 1021.7
20260509044231 24 121 3.2 14.5 0.00 0.00 0.00 45 1021.6
20260509042721 24 201 3.2 16.1 0.00 0.00 0.00 43 1021.5
20260509041220 24 24 3.2 12.9 0.00 0.00 0.00 43 1021.6
20260509035710 23 0 4.8 14.5 0.00 0.00 0.00 42 1021.5
20260509034207 23 27 4.8 14.5 0.00 0.00 0.00 46 1021.6
20260509032705 24 332 3.2 16.1 0.00 0.00 0.00 47 1021.8
20260509031200 23 66 1.6 8.0 0.00 0.00 0.00 50 1021.7
20260509025642 24 83 3.2 9.7 0.00 0.00 0.00 47 1021.9
20260509024141 22 101 1.6 11.3 0.00 0.00 0.00 50 1022.1
20260509022622 23 69 3.2 8.0 0.00 0.00 0.00 49 1022.2
20260509021124 25 145 3.2 11.3 0.00 0.00 0.00 45 1022.5
20260509020321 23 317 1.6 11.3 0.00 0.00 0.00 49 1022.5
20260509014803 24 92 3.2 12.9 0.00 0.00 0.00 47 1022.7
20260509014003 23 16 1.6 8.0 0.00 0.00 0.00 53 1023.0
20260509011809 23 92 3.2 11.3 0.00 0.00 0.00 50 1023.0
20260509005550 23 68 3.2 9.7 0.00 0.00 0.00 53 1023.2
20260509004028 23 194 3.2 14.5 0.00 0.00 0.00 54 1023.1
20260509001022 22 207 4.8 12.9 0.00 0.00 0.00 55 1023.2